period_start,C,m1,H,J0,J1,J2,J3,J4,J5,JA,JB,JC,JD,JJ,JK,JN,#
2014-05-06 00:00:53,0.15,0.81,0.00,19.86,26.40,27.88,5.98,30.67,1017.60,2042.00,3152.15,3105.07,3334.20,349.68,327.70,6.97,0000 0000 0000 0000 000000
2014-05-06 00:01:53,0.08,0.81,0.00,19.90,26.41,27.88,6.19,30.63,1017.60,2042.00,3152.05,3105.02,3334.07,349.88,327.60,6.98,0000 0000 0000 0000 000000
2014-05-06 00:02:53,0.03,0.81,0.00,19.92,26.42,27.90,6.10,30.71,1017.59,2042.00,3151.81,3105.00,3334.02,350.23,328.01,6.98,0000 0000 0000 0000 000000
2014-05-06 00:03:53,0.05,0.82,0.00,19.94,26.42,27.91,6.23,30.79,1017.59,2042.00,3151.34,3104.87,3333.83,350.01,327.68,6.99,0000 0000 0000 0000 000000
2014-05-06 00:04:54,0.12,0.82,0.00,19.92,26.42,27.90,6.17,30.54,1017.59,2042.00,3151.12,3104.69,3333.46,350.96,328.58,7.00,0000 0000 0000 0000 000000
2014-05-06 00:05:54,0.15,0.82,0.00,19.89,26.42,27.88,6.10,30.71,1017.59,2042.00,3151.00,3104.30,3333.18,349.35,327.11,7.00,0000 0000 0000 0000 000000
2014-05-06 00:06:54,0.13,0.82,0.00,19.81,26.42,27.88,6.25,30.63,1017.59,2042.00,3150.54,3104.12,3333.07,350.76,328.75,7.01,0000 0000 0000 0000 000000
2014-05-06 00:07:54,0.11,0.82,0.00,19.77,26.42,27.91,6.08,30.58,1017.60,2042.00,3150.22,3104.04,3333.02,350.20,328.05,7.01,0000 0000 0000 0000 000000
2014-05-06 00:08:54,0.06,0.82,0.00,19.78,26.42,27.94,6.24,30.54,1017.60,2042.00,3150.07,3104.01,3332.91,351.06,328.71,7.02,0000 0000 0000 0000 000000
2014-05-06 00:09:55,0.04,0.82,0.00,19.80,26.42,27.95,6.08,30.54,1017.61,2042.00,3149.88,3103.91,3332.49,349.79,327.63,7.02,0000 0000 0000 0000 000000
2014-05-06 00:10:55,0.12,0.82,0.00,19.83,26.42,27.93,6.22,30.54,1017.61,2042.00,3149.41,3103.67,3332.18,351.48,329.38,7.03,0000 0000 0000 0000 000000
2014-05-06 00:11:55,0.16,0.82,0.00,19.87,26.42,27.92,6.13,30.54,1017.60,2042.00,3149.15,3103.32,3332.07,349.88,327.79,7.04,0000 0000 0000 0000 000000
2014-05-06 00:12:55,0.12,0.82,0.00,19.90,26.42,27.96,6.10,30.63,1017.60,2042.00,3149.03,3103.13,3332.02,349.79,327.51,7.04,0000 0000 0000 0000 000000
2014-05-06 00:13:55,0.05,0.82,0.00,19.93,26.42,27.98,6.06,30.42,1017.59,2042.00,3148.64,3103.05,3331.88,350.51,328.16,7.05,0000 0000 0000 0000 000000
2014-05-06 00:14:56,0.10,0.82,0.00,19.91,26.43,27.96,6.11,30.29,1017.61,2042.00,3148.25,3103.01,3331.45,350.43,328.09,7.05,0000 0000 0000 0000 000000
2014-05-06 00:15:56,0.11,0.82,0.00,19.92,26.44,27.92,6.02,30.58,1017.59,2041.99,3148.08,3102.91,3331.16,349.49,327.21,7.06,0000 0000 0000 0000 000000
2014-05-06 00:16:56,0.07,0.82,0.00,19.89,26.44,27.91,5.99,30.75,1017.59,2041.99,3147.94,3102.64,3331.05,348.41,326.24,7.07,0000 0000 0000 0000 000000
2014-05-06 00:17:56,0.11,0.82,0.00,19.84,26.45,27.96,6.13,30.54,1017.59,2041.99,3147.52,3102.28,3331.01,350.70,328.06,7.07,0000 0000 0000 0000 000000
2014-05-06 00:18:57,0.14,0.83,0.00,19.80,26.45,27.95,6.05,30.71,1017.59,2041.99,3147.21,3102.11,3330.92,349.50,327.35,7.08,0000 0000 0000 0000 000000
2014-05-06 00:19:57,0.10,0.83,0.00,19.82,26.45,27.90,6.18,30.79,1017.59,2041.99,3147.06,3102.04,3330.47,349.74,327.56,7.08,0000 0000 0000 0000 000000
2014-05-06 00:20:57,0.10,0.83,0.00,19.84,26.45,27.91,6.15,30.58,1017.59,2041.99,3146.99,3102.01,3330.19,349.87,327.89,7.09,0000 0000 0000 0000 000000
2014-05-06 00:21:58,0.05,0.83,0.00,19.88,26.45,27.94,6.07,30.50,1017.59,2041.99,3146.57,3101.99,3330.07,350.54,328.23,7.10,0000 0000 0000 0000 000000
2014-05-06 00:22:58,0.08,0.83,0.00,19.93,26.45,28.02,6.22,30.58,1017.59,2041.98,3146.20,3101.94,3330.02,351.24,328.41,7.10,0000 0000 0000 0000 000000
2014-05-06 00:23:58,0.06,0.83,0.00,19.97,26.45,28.05,5.93,30.75,1017.59,2041.99,3146.07,3101.65,3329.96,348.87,326.19,7.11,0000 0000 0000 0000 000000
2014-05-06 00:24:58,0.11,0.83,0.00,19.95,26.45,28.04,6.13,30.92,1017.59,2041.98,3145.92,3101.27,3329.54,350.53,328.29,7.11,0000 0000 0000 0000 000000
2014-05-06 00:25:59,0.16,0.83,0.00,19.94,26.45,28.03,5.98,31.00,1017.59,2041.99,3145.45,3101.11,3329.20,349.43,327.39,7.12,0000 0000 0000 0000 000000
2014-05-06 00:26:59,0.15,0.83,0.00,19.91,26.45,28.03,6.01,30.83,1017.59,2041.99,3145.16,3101.04,3329.07,349.87,327.57,7.12,0000 0000 0000 0000 000000
2014-05-06 00:27:59,0.06,0.83,0.00,19.87,26.46,27.99,6.12,30.79,1017.59,2041.98,3145.05,3101.01,3329.02,350.25,327.98,7.13,0000 0000 0000 0000 000000
2014-05-06 00:29:00,0.02,0.83,0.00,19.88,26.47,27.98,6.17,30.58,1017.59,2041.99,3144.76,3100.96,3328.98,350.65,327.94,7.14,0000 0000 0000 0000 000000
2014-05-06 00:30:00,0.08,0.83,0.00,19.89,26.47,27.97,6.07,30.54,1017.60,2041.99,3144.45,3100.91,3328.88,349.46,327.36,7.14,0000 0000 0000 0000 000000
2014-05-06 00:31:00,0.06,0.83,0.00,19.90,26.47,27.98,6.09,30.54,1017.59,2041.99,3144.18,3100.57,3328.50,350.03,328.13,7.15,0000 0000 0000 0000 000000
2014-05-06 00:32:00,0.19,0.83,0.00,19.93,26.47,28.01,5.98,30.50,1017.59,2041.98,3144.05,3100.21,3328.19,350.07,327.75,7.15,0000 0000 0000 0000 000000
2014-05-06 00:33:00,0.11,0.83,0.00,19.94,26.47,28.00,6.17,30.67,1017.59,2041.98,3143.95,3100.07,3328.07,350.41,328.05,7.16,0000 0000 0000 0000 000000
2014-05-06 00:34:01,0.04,0.83,0.00,19.94,26.47,27.97,6.02,30.92,1017.59,2041.99,3143.59,3100.01,3328.01,349.35,327.05,7.17,0000 0000 0000 0000 000000
2014-05-06 00:35:01,0.08,0.83,0.00,19.91,26.47,27.98,6.03,30.63,1017.59,2041.98,3143.22,3099.97,3327.73,350.16,327.84,7.17,0000 0000 0000 0000 000000
2014-05-06 00:36:01,0.10,0.83,0.00,19.88,26.47,27.98,6.00,30.71,1017.60,2041.98,3143.05,3099.79,3327.34,349.21,326.91,7.18,0000 0000 0000 0000 000000
2014-05-06 00:37:01,0.11,0.84,0.00,19.87,26.47,27.99,6.04,30.75,1017.60,2041.98,3142.86,3099.43,3327.15,349.36,327.15,7.18,0000 0000 0000 0000 000000
2014-05-06 00:38:02,0.15,0.84,0.00,19.88,26.48,27.97,6.19,30.71,1017.61,2041.99,3142.43,3099.18,3327.05,350.37,328.08,7.19,0000 0000 0000 0000 000000
2014-05-06 00:39:02,0.13,0.84,0.00,19.90,26.49,28.01,6.07,30.67,1017.61,2041.98,3142.15,3099.06,3326.99,349.70,327.33,7.19,0000 0000 0000 0000 000000
2014-05-06 00:40:02,0.05,0.84,0.00,19.92,26.50,28.01,6.10,30.67,1017.60,2041.98,3142.04,3099.02,3326.92,350.42,327.98,7.20,0000 0000 0000 0000 000000
2014-05-06 00:41:02,0.03,0.84,0.00,19.93,26.50,28.00,6.11,30.67,1017.60,2041.97,3141.74,3099.00,3326.54,349.85,327.53,7.21,0000 0000 0000 0000 000000
2014-05-06 00:42:03,0.11,0.84,0.00,19.91,26.50,28.00,6.15,30.63,1017.59,2041.97,3141.31,3098.91,3326.21,350.34,328.01,7.21,0000 0000 0000 0000 000000
2014-05-06 00:43:03,0.12,0.84,0.00,19.89,26.50,28.02,5.90,30.42,1017.59,2041.98,3141.11,3098.51,3326.07,349.50,327.25,7.22,0000 0000 0000 0000 000000
2014-05-06 00:44:03,0.14,0.84,0.00,19.89,26.50,27.98,6.07,30.71,1017.59,2041.97,3140.93,3098.24,3326.03,349.47,327.00,7.22,0000 0000 0000 0000 000000
2014-05-06 00:45:03,0.07,0.84,0.00,19.93,26.50,27.98,6.06,30.75,1017.59,2041.97,3140.57,3098.08,3325.91,349.76,327.73,7.23,0000 0000 0000 0000 000000
2014-05-06 00:46:03,0.09,0.84,0.00,19.94,26.50,28.00,6.07,30.92,1017.59,2041.94,3140.24,3098.03,3325.52,350.59,327.89,7.24,0000 0000 0000 0000 000000
2014-05-06 00:47:03,0.11,0.84,0.00,19.96,26.50,28.02,6.12,30.63,1017.59,2041.96,3140.07,3098.01,3325.20,350.14,327.77,7.24,0000 0000 0000 0000 000000
2014-05-06 00:48:04,0.07,0.84,0.00,19.99,26.50,28.04,5.99,30.75,1017.59,2041.96,3139.77,3097.93,3325.07,349.42,327.11,7.25,0000 0000 0000 0000 000000
2014-05-06 00:49:04,0.08,0.84,0.00,19.99,26.50,28.03,6.10,30.67,1017.59,2041.95,3139.33,3097.69,3325.01,349.93,327.54,7.25,0000 0000 0000 0000 000000
2014-05-06 00:50:04,0.13,0.84,0.00,19.99,26.51,28.01,6.15,30.75,1017.59,2041.97,3139.11,3097.33,3324.89,349.54,327.77,7.26,0000 0000 0000 0000 000000
2014-05-06 00:51:04,0.14,0.84,0.00,19.97,26.51,28.00,6.11,30.79,1017.59,2041.94,3139.03,3097.13,3324.44,350.19,327.77,7.27,0000 0000 0000 0000 000000
2014-05-06 00:52:04,0.07,0.84,0.00,19.94,26.52,28.03,6.04,30.54,1017.59,2041.94,3138.85,3097.05,3324.17,349.99,327.49,7.27,0000 0000 0000 0000 000000
2014-05-06 00:53:05,0.08,0.84,0.00,19.94,26.52,28.06,6.14,30.58,1017.59,2041.95,3138.47,3097.01,3324.07,350.56,327.95,7.28,0000 0000 0000 0000 000000
2014-05-06 00:54:05,0.10,0.85,0.00,19.97,26.52,28.04,6.07,30.50,1017.59,2041.91,3138.17,3096.97,3324.01,349.68,327.17,7.28,0000 0000 0000 0000 000000
2014-05-06 00:55:05,0.00,0.85,0.00,20.02,26.52,28.03,5.98,30.54,1017.59,2041.91,3138.03,3096.79,3323.93,349.86,327.45,7.29,0000 0000 0000 0000 000000
2014-05-06 00:56:05,0.11,0.85,0.00,20.03,26.52,28.06,6.15,30.63,1017.59,2041.90,3137.87,3096.44,3323.71,349.65,327.24,7.29,0000 0000 0000 0000 000000
2014-05-06 00:57:05,0.11,0.85,0.00,20.03,26.52,28.04,5.96,30.58,1017.59,2041.93,3137.52,3096.19,3323.32,349.40,327.01,7.30,0000 0000 0000 0000 000000
2014-05-06 00:58:06,0.19,0.85,0.00,20.00,26.52,28.03,6.10,30.88,1017.59,2041.93,3137.18,3096.07,3323.11,349.66,327.28,7.31,0000 0000 0000 0000 000000
2014-05-06 00:59:06,0.09,0.85,0.00,19.93,26.52,28.02,6.19,30.75,1017.59,2041.92,3137.03,3096.02,3323.03,349.88,327.55,7.31,0000 0000 0000 0000 000000
2014-05-06 01:00:06,0.02,0.85,0.00,19.88,26.52,28.07,6.02,30.42,1017.59,2041.93,3136.79,3096.00,3322.99,349.26,327.04,7.32,0000 0000 0000 0000 000000
2014-05-06 01:01:06,0.06,0.85,0.00,19.89,26.53,28.12,6.17,30.42,1017.59,2041.90,3136.33,3095.91,3322.76,350.39,328.09,7.32,0000 0000 0000 0000 000000
2014-05-06 01:02:06,0.09,0.85,0.00,19.90,26.53,28.12,6.19,30.54,1017.59,2041.89,3136.12,3095.60,3322.34,350.38,328.24,7.33,0000 0000 0000 0000 000000
2014-05-06 01:03:07,0.17,0.85,0.00,19.94,26.54,28.08,6.17,30.58,1017.59,2041.85,3136.01,3095.25,3322.12,349.81,327.49,7.34,0000 0000 0000 0000 000000
2014-05-06 01:04:07,0.08,0.85,0.00,19.97,26.54,28.08,6.10,30.58,1017.59,2041.79,3135.83,3095.09,3322.03,349.61,327.26,7.34,0000 0000 0000 0000 000000
2014-05-06 01:05:07,0.01,0.85,0.00,19.98,26.55,28.07,6.15,30.58,1017.59,2041.74,3135.47,3095.03,3321.99,350.81,328.38,7.35,0000 0000 0000 0000 000000
2014-05-06 01:06:07,0.00,0.85,0.00,19.93,26.55,28.07,6.13,30.54,1017.59,2041.73,3135.17,3095.00,3321.80,350.17,328.02,7.35,0000 0000 0000 0000 000000
2014-05-06 01:07:07,0.10,0.85,0.00,19.91,26.55,28.04,6.08,30.92,1017.59,2041.76,3135.06,3094.99,3321.51,348.44,326.24,7.36,0000 0000 0000 0000 000000
2014-05-06 01:08:08,0.07,0.85,0.00,19.92,26.55,28.05,6.12,30.71,1017.59,2041.76,3135.01,3094.93,3321.22,350.51,328.17,7.36,0000 0000 0000 0000 000000
2014-05-06 01:09:08,0.04,0.85,0.00,19.95,26.55,28.10,6.23,30.63,1017.59,2041.78,3134.90,3094.68,3321.08,350.54,328.17,7.37,0000 0000 0000 0000 000000
2014-05-06 01:10:08,0.12,0.85,0.00,19.97,26.55,28.11,5.88,30.67,1017.59,2041.79,3134.51,3094.31,3321.03,348.70,326.62,7.38,0000 0000 0000 0000 000000
2014-05-06 01:11:08,0.16,0.85,0.00,19.99,26.55,28.05,6.23,30.83,1017.60,2041.80,3134.22,3094.13,3320.98,349.55,327.73,7.38,0000 0000 0000 0000 000000
2014-05-06 01:12:09,0.10,0.85,0.00,19.99,26.55,28.04,6.14,30.75,1017.61,2041.77,3134.08,3094.05,3320.73,350.02,327.63,7.39,0000 0000 0000 0000 000000
2014-05-06 01:13:09,0.04,0.85,0.00,19.96,26.56,28.09,6.08,30.54,1017.62,2041.66,3133.90,3094.01,3320.33,349.79,327.46,7.39,0000 0000 0000 0000 000000
2014-05-06 01:14:09,-0.01,0.85,0.00,19.94,26.56,28.05,6.15,30.79,1017.60,2041.54,3133.48,3093.96,3320.13,350.08,327.86,7.40,0000 0000 0000 0000 000000
2014-05-06 01:15:09,0.03,0.86,0.00,19.91,26.57,28.07,6.27,30.67,1017.60,2041.37,3133.17,3093.70,3320.05,349.91,327.61,7.41,0000 0000 0000 0000 000000
2014-05-06 01:16:10,-0.04,0.85,0.00,19.91,26.57,28.06,6.07,30.63,1017.61,2041.35,3133.06,3093.39,3319.99,349.68,327.26,7.41,0000 0000 0000 0000 000000
2014-05-06 01:17:10,0.08,0.86,0.00,19.93,26.57,28.02,6.12,30.50,1017.68,2041.35,3133.00,3093.16,3319.94,350.36,327.46,7.42,0000 0000 0000 0000 000000
2014-05-06 01:18:10,0.05,0.86,0.00,19.99,26.57,28.02,6.16,30.46,1017.73,2041.28,3132.77,3093.06,3319.72,349.58,327.50,7.42,0000 0000 0000 0000 000000
2014-05-06 01:19:10,0.05,0.86,0.00,20.00,26.57,28.00,6.06,30.17,1017.83,2041.18,3132.32,3093.02,3319.28,350.89,328.56,7.43,0000 0000 0000 0000 000000
2014-05-06 01:20:11,0.05,0.86,0.00,19.98,26.57,28.03,6.06,30.38,1017.88,2041.16,3132.11,3093.00,3319.10,348.85,326.63,7.43,0000 0000 0000 0000 000000
2014-05-06 01:21:11,0.03,0.86,0.00,19.97,26.57,28.05,6.17,30.46,1017.88,2041.26,3132.03,3093.00,3319.03,350.00,327.72,7.44,0000 0000 0000 0000 000000
2014-05-06 01:22:11,0.11,0.86,0.00,19.96,26.57,28.06,5.97,30.54,1017.90,2041.30,3131.74,3092.80,3318.98,350.02,327.76,7.45,0000 0000 0000 0000 000000
2014-05-06 01:23:11,0.15,0.86,0.00,19.93,26.57,28.04,5.98,30.42,1017.86,2041.20,3131.32,3092.41,3318.70,349.36,327.16,7.45,0000 0000 0000 0000 000000
2014-05-06 01:24:11,0.09,0.86,0.00,19.94,26.57,28.03,6.08,30.63,1017.92,2041.13,3131.12,3092.16,3318.30,349.37,327.17,7.46,0000 0000 0000 0000 000000
2014-05-06 01:25:12,0.09,0.86,0.00,19.97,26.57,28.01,6.14,30.75,1018.00,2041.14,3131.04,3092.07,3318.13,350.79,328.29,7.46,0000 0000 0000 0000 000000
2014-05-06 01:26:12,0.06,0.86,0.00,20.00,26.57,28.02,6.01,30.71,1018.05,2041.14,3130.78,3092.02,3318.05,349.63,327.19,7.47,0000 0000 0000 0000 000000
2014-05-06 01:27:12,0.07,0.86,0.00,19.99,26.57,28.01,6.03,30.71,1018.01,2041.09,3130.32,3092.00,3317.98,349.30,327.08,7.48,0000 0000 0000 0000 000000
2014-05-06 01:28:12,0.03,0.86,0.00,19.98,26.58,28.00,6.17,30.42,1018.05,2041.07,3130.11,3091.89,3317.76,350.52,327.75,7.48,0000 0000 0000 0000 000000
2014-05-06 01:29:13,0.07,0.86,0.00,19.94,26.59,28.01,6.09,30.50,1018.06,2041.11,3129.99,3091.64,3317.42,350.43,328.22,7.49,0000 0000 0000 0000 000000
2014-05-06 01:30:13,0.17,0.86,0.00,19.89,26.59,28.03,6.21,30.71,1018.06,2041.08,3129.60,3091.26,3317.15,350.92,328.73,7.49,0000 0000 0000 0000 000000
2014-05-06 01:31:13,0.14,0.86,0.00,19.87,26.60,28.05,6.10,30.54,1018.05,2041.05,3129.25,3091.10,3317.05,349.81,327.94,7.50,0000 0000 0000 0000 000000
2014-05-06 01:32:13,0.06,0.86,0.00,19.88,26.60,28.06,6.09,30.50,1018.05,2041.02,3129.08,3091.04,3317.02,349.72,327.62,7.50,0000 0000 0000 0000 000000
2014-05-06 01:33:13,0.01,0.86,0.00,19.92,26.60,28.06,6.15,30.71,1018.02,2041.02,3129.02,3091.01,3316.95,350.17,327.98,7.51,0000 0000 0000 0000 000000
2014-05-06 01:34:13,0.03,0.86,0.00,19.94,26.60,28.06,6.17,30.50,1018.06,2041.04,3128.77,3091.00,3316.71,350.43,328.61,7.52,0000 0000 0000 0000 000000
2014-05-06 01:35:14,0.09,0.86,0.00,19.95,26.60,28.05,6.07,30.50,1018.04,2041.07,3128.32,3090.92,3316.30,350.42,327.98,7.52,0000 0000 0000 0000 000000
2014-05-06 01:36:14,0.14,0.86,0.00,19.97,26.60,28.04,6.04,30.50,1018.04,2041.06,3128.12,3090.51,3316.11,350.04,327.81,7.53,0000 0000 0000 0000 000000
2014-05-06 01:37:14,0.14,0.87,0.00,19.95,26.60,28.06,6.03,30.67,1018.02,2041.05,3128.03,3090.22,3316.04,350.04,327.66,7.53,0000 0000 0000 0000 000000
2014-05-06 01:38:14,0.09,0.87,0.00,19.93,26.60,28.07,6.11,30.75,1017.93,2041.02,3127.68,3090.08,3315.98,350.35,328.11,7.54,0000 0000 0000 0000 000000
2014-05-06 01:39:15,0.07,0.87,0.00,19.93,26.60,28.06,6.07,30.67,1017.88,2041.04,3127.28,3090.03,3315.83,349.64,327.95,7.55,0000 0000 0000 0000 000000
2014-05-06 01:40:15,0.10,0.87,0.00,19.99,26.60,28.08,6.05,30.46,1017.81,2041.02,3127.10,3090.00,3315.42,349.55,327.30,7.55,0000 0000 0000 0000 000000
2014-05-06 01:41:15,0.06,0.87,0.00,20.00,26.61,28.07,6.17,30.58,1017.80,2041.00,3127.03,3089.97,3315.16,350.70,328.32,7.56,0000 0000 0000 0000 000000
2014-05-06 01:42:15,0.04,0.87,0.00,20.01,26.61,28.08,6.14,30.58,1017.81,2041.01,3126.96,3089.91,3315.05,350.91,328.51,7.56,0000 0000 0000 0000 000000
2014-05-06 01:43:16,0.04,0.87,0.00,20.01,26.62,28.09,5.98,30.46,1017.72,2041.03,3126.46,3089.53,3315.01,349.01,326.70,7.57,0000 0000 0000 0000 000000
2014-05-06 01:44:16,0.18,0.87,0.00,20.04,26.62,28.08,6.10,30.54,1017.79,2041.03,3126.17,3089.22,3314.90,349.85,327.47,7.58,0000 0000 0000 0000 000000
2014-05-06 01:45:16,0.13,0.87,0.00,20.04,26.62,28.07,5.96,30.50,1017.80,2041.02,3126.03,3089.08,3314.47,349.34,326.99,7.58,0000 0000 0000 0000 000000
2014-05-06 01:46:17,0.10,0.87,0.00,20.06,26.62,28.13,6.07,30.42,1017.76,2041.00,3125.67,3089.03,3314.18,350.06,327.63,7.59,0000 0000 0000 0000 000000
2014-05-06 01:47:17,0.08,0.87,0.00,20.07,26.62,28.12,6.23,30.63,1017.82,2041.00,3125.35,3089.01,3314.07,351.19,328.70,7.59,0000 0000 0000 0000 000000
2014-05-06 01:48:17,0.05,0.87,0.00,20.09,26.62,28.17,6.12,30.54,1017.82,2041.00,3125.15,3088.97,3314.02,349.71,327.31,7.60,0000 0000 0000 0000 000000
2014-05-06 01:49:17,0.05,0.87,0.00,20.09,26.62,28.16,6.14,30.29,1017.87,2041.00,3125.04,3088.72,3313.96,349.88,327.46,7.60,0000 0000 0000 0000 000000
2014-05-06 01:50:18,0.09,0.87,0.00,20.08,26.62,28.15,6.10,30.50,1017.95,2041.00,3124.92,3088.33,3313.63,350.42,328.01,7.61,0000 0000 0000 0000 000000
2014-05-06 01:51:18,0.16,0.87,0.00,20.08,26.63,28.14,5.99,30.54,1017.99,2041.01,3124.63,3088.15,3313.27,348.61,326.48,7.62,0000 0000 0000 0000 000000
2014-05-06 01:52:18,0.13,0.87,0.00,20.11,26.63,28.20,6.19,30.42,1017.96,2041.01,3124.24,3088.06,3313.11,351.53,329.02,7.62,0000 0000 0000 0000 000000
2014-05-06 01:53:18,0.09,0.87,0.00,20.13,26.64,28.29,6.02,30.71,1018.04,2041.01,3124.08,3088.01,3313.04,349.65,327.27,7.63,0000 0000 0000 0000 000000
2014-05-06 01:54:18,0.04,0.87,0.00,20.16,26.65,28.30,6.08,30.50,1018.05,2041.01,3123.97,3088.00,3313.00,350.50,327.80,7.63,0000 0000 0000 0000 000000
2014-05-06 01:55:19,0.03,0.87,0.00,20.18,26.65,28.28,6.01,30.50,1018.04,2041.00,3123.52,3087.85,3312.71,349.58,326.62,7.64,0000 0000 0000 0000 000000
2014-05-06 01:56:19,0.12,0.88,0.00,20.19,26.65,28.29,6.10,30.63,1018.06,2041.00,3123.20,3087.69,3312.43,349.82,327.25,7.65,0000 0000 0000 0000 000000
2014-05-06 01:57:19,0.12,0.88,0.00,20.19,26.65,28.31,6.23,30.67,1018.05,2041.00,3123.07,3087.34,3312.17,351.32,328.76,7.65,0000 0000 0000 0000 000000
2014-05-06 01:58:20,0.13,0.88,0.00,20.20,26.65,28.26,6.07,30.63,1018.06,2041.01,3122.83,3087.14,3312.06,349.55,327.11,7.66,0000 0000 0000 0000 000000
2014-05-06 01:59:20,0.10,0.88,0.00,20.19,26.65,28.29,6.13,30.46,1018.08,2041.00,3122.36,3087.05,3312.02,350.76,328.06,7.66,0000 0000 0000 0000 000000
2014-05-06 02:00:20,0.09,0.88,0.00,20.21,26.65,28.34,6.06,30.46,1018.07,2041.00,3122.12,3087.01,3312.00,349.92,326.95,7.67,0000 0000 0000 0000 000000
2014-05-06 02:01:20,0.04,0.88,0.00,20.23,26.65,28.35,6.14,30.50,1018.07,2041.00,3122.02,3087.00,3311.70,350.22,327.70,7.67,0000 0000 0000 0000 000000
2014-05-06 02:02:21,0.07,0.88,0.00,20.26,26.66,28.36,6.16,30.50,1018.05,2041.00,3121.65,3086.86,3311.29,350.86,328.26,7.68,0000 0000 0000 0000 000000
2014-05-06 02:03:21,0.15,0.88,0.00,20.28,26.67,28.43,6.01,30.58,1018.03,2041.00,3121.29,3086.45,3311.10,349.91,327.06,7.69,0000 0000 0000 0000 000000
2014-05-06 02:04:21,0.15,0.88,0.00,20.30,26.67,28.45,6.11,30.50,1017.99,2041.00,3121.10,3086.20,3311.03,350.98,328.31,7.69,0000 0000 0000 0000 000000
2014-05-06 02:05:22,0.08,0.88,0.00,20.31,26.67,28.47,6.04,30.38,1018.05,2041.00,3121.02,3086.08,3310.98,349.87,327.27,7.70,0000 0000 0000 0000 000000
2014-05-06 02:06:22,0.07,0.88,0.00,20.31,26.67,28.45,5.95,30.50,1018.08,2041.00,3120.68,3086.03,3310.58,349.26,326.83,7.70,0000 0000 0000 0000 000000
2014-05-06 02:07:22,0.11,0.88,0.00,20.28,26.67,28.48,6.09,30.42,1018.08,2041.00,3120.27,3085.99,3310.24,350.30,328.01,7.71,0000 0000 0000 0000 000000
2014-05-06 02:08:22,0.10,0.88,0.00,20.26,26.67,28.51,6.00,30.33,1018.08,2041.00,3120.09,3085.93,3310.08,349.12,326.64,7.72,0000 0000 0000 0000 000000
2014-05-06 02:09:23,0.06,0.88,0.00,20.26,26.67,28.53,6.15,30.75,1018.08,2041.00,3119.95,3085.60,3310.02,349.23,326.75,7.72,0000 0000 0000 0000 000000
2014-05-06 02:10:23,0.12,0.88,0.00,20.28,26.68,28.53,6.13,30.46,1018.08,2041.00,3119.47,3085.25,3309.90,350.59,327.94,7.73,0000 0000 0000 0000 000000
2014-05-06 02:11:23,0.16,0.88,0.00,20.30,26.69,28.53,5.98,30.50,1018.05,2041.00,3119.18,3085.10,3309.59,349.44,326.89,7.73,0000 0000 0000 0000 000000
2014-05-06 02:12:23,0.11,0.89,0.00,20.33,26.70,28.54,6.13,30.42,1018.07,2041.00,3119.06,3085.03,3309.26,349.60,326.56,7.74,0000 0000 0000 0000 000000
2014-05-06 02:13:24,0.06,0.89,0.00,20.37,26.70,28.60,6.08,30.29,1018.05,2041.00,3119.01,3085.01,3309.10,349.83,327.17,7.75,0000 0000 0000 0000 000000
2014-05-06 02:14:24,0.03,0.89,0.00,20.36,26.70,28.53,6.08,30.54,1018.07,2041.00,3118.83,3085.00,3309.03,349.56,327.65,7.75,0000 0000 0000 0000 000000
2014-05-06 02:15:24,0.02,0.89,0.00,20.32,26.70,28.47,6.16,30.42,1018.07,2041.00,3118.70,3084.91,3308.99,350.73,328.40,7.76,0000 0000 0000 0000 000000
2014-05-06 02:16:25,0.07,0.89,0.00,20.28,26.70,28.51,6.14,30.58,1018.05,2041.00,3118.30,3084.60,3308.94,349.93,327.20,7.76,0000 0000 0000 0000 000000
2014-05-06 02:17:25,0.15,0.89,0.00,20.28,26.70,28.57,6.07,30.46,1018.04,2041.00,3118.10,3084.29,3308.61,349.50,327.16,7.77,0000 0000 0000 0000 000000
2014-05-06 02:18:25,0.13,0.89,0.00,20.31,26.72,28.60,5.97,30.54,1018.01,2041.00,3118.02,3084.11,3308.25,349.39,326.99,7.77,0000 0000 0000 0000 000000
2014-05-06 02:19:26,0.09,0.89,0.00,20.32,26.72,28.59,6.00,30.33,1017.96,2041.00,3117.75,3084.04,3308.09,350.16,327.51,7.78,0000 0000 0000 0000 000000
2014-05-06 02:20:26,0.07,0.89,0.00,20.35,26.72,28.55,6.16,30.58,1017.92,2041.00,3117.35,3084.01,3308.03,350.34,327.63,7.79,0000 0000 0000 0000 000000
2014-05-06 02:21:26,0.07,0.89,0.00,20.39,26.72,28.57,6.09,30.54,1017.95,2040.99,3117.13,3083.97,3307.99,349.42,326.73,7.79,0000 0000 0000 0000 000000
2014-05-06 02:22:27,0.04,0.89,0.00,20.40,26.72,28.59,6.07,30.50,1017.98,2040.99,3117.05,3083.89,3307.74,349.52,326.83,7.80,0000 0000 0000 0000 000000
2014-05-06 02:23:27,0.09,0.89,0.00,20.40,26.73,28.66,6.03,30.67,1017.88,2040.99,3116.91,3083.49,3307.36,349.36,326.65,7.80,0000 0000 0000 0000 000000
2014-05-06 02:24:27,0.16,0.89,0.00,20.37,26.74,28.64,6.06,30.46,1017.73,2040.98,3116.46,3083.21,3307.13,349.12,326.40,7.81,0000 0000 0000 0000 000000
2014-05-06 02:25:27,0.14,0.89,0.00,20.38,26.75,28.59,6.22,30.75,1017.74,2040.97,3116.16,3083.07,3307.02,350.03,327.05,7.82,0000 0000 0000 0000 000000
2014-05-06 02:26:28,0.08,0.89,0.00,20.39,26.75,28.57,6.14,30.71,1017.83,2040.97,3116.01,3083.02,3306.96,350.65,327.85,7.82,0000 0000 0000 0000 000000
2014-05-06 02:27:28,0.06,0.89,0.00,20.38,26.75,28.58,6.02,30.54,1017.80,2040.97,3115.66,3082.99,3306.59,349.59,326.54,7.83,0000 0000 0000 0000 000000
2014-05-06 02:28:28,0.09,0.89,0.00,20.43,26.75,28.58,6.00,30.42,1017.77,2040.99,3115.34,3082.89,3306.25,349.63,327.49,7.83,0000 0000 0000 0000 000000
2014-05-06 02:29:28,0.11,0.89,0.00,20.43,26.75,28.62,6.21,30.38,1017.83,2040.98,3115.13,3082.74,3306.10,350.26,327.43,7.84,0000 0000 0000 0000 000000
2014-05-06 02:30:29,0.10,0.89,0.00,20.44,26.77,28.68,6.05,30.42,1017.82,2040.98,3114.99,3082.37,3306.03,349.53,326.73,7.84,0000 0000 0000 0000 000000
2014-05-06 02:31:29,0.12,0.90,0.00,20.45,26.77,28.65,6.08,30.42,1017.83,2040.97,3114.55,3082.14,3305.99,350.07,327.24,7.85,0000 0000 0000 0000 000000
2014-05-06 02:32:29,0.10,0.90,0.00,20.49,26.77,28.67,6.20,30.58,1017.95,2040.97,3114.31,3082.05,3305.89,350.23,327.38,7.86,0000 0000 0000 0000 000000
2014-05-06 02:33:30,0.08,0.90,0.00,20.49,26.77,28.72,6.06,30.63,1017.98,2040.96,3114.11,3082.00,3305.43,349.08,326.22,7.86,0000 0000 0000 0000 000000
2014-05-06 02:34:30,0.07,0.90,0.00,20.50,26.77,28.71,6.14,30.38,1017.90,2040.95,3114.04,3081.97,3305.16,349.39,326.89,7.87,0000 0000 0000 0000 000000
2014-05-06 02:35:30,0.05,0.90,0.00,20.50,26.78,28.74,6.13,30.42,1017.90,2040.95,3113.94,3081.83,3305.05,349.68,326.83,7.87,0000 0000 0000 0000 000000
2014-05-06 02:36:30,0.06,0.90,0.00,20.47,26.79,28.73,6.24,30.46,1017.95,2040.95,3113.51,3081.46,3305.00,350.14,327.32,7.88,0000 0000 0000 0000 000000
2014-05-06 02:37:31,0.13,0.90,0.00,20.47,26.80,28.70,6.13,30.54,1017.96,2040.92,3113.18,3081.18,3304.86,351.10,328.21,7.89,0000 0000 0000 0000 000000